Mitgliederbereich
Imprimable
Wissant, 09-10/09/2017, BEL - Trail de la Côte d'Opale
Liste der Berichte > 24km - Ergebnis
Suche: Seite: [1]
338 Eingaben
 
Les réclamations ne sont plus acceptées, les résultats sont considérés comme définitifs.
PlatzNrLicenceNameAgeNATMannschaftZeitTkmMoy.ScrStadt
1.6120HERMAN Thomas41FRAVALENCIENNES TRIATHLON1:42:304:17 14.054
2.7114LAFORGUE Emmanuel41FRA1:43:514:20 13.876
3.6759CHARLES Franck45FRA1:51:014:38 12.9716
4.6344YAHIAOUI Sidi Mohammed41FRAFSGT DAC DENAIN1:52:084:41 12.8420
5.6004LANOY Stéphane431:52:244:41 12.8121
6.6851TESSE Sebastien46BELTRIGT1:52:414:42 12.7823
7.7040HENRY William44FRAOGS1:53:004:43 12.7524
8.7045SULKOWSKI Laurent43FRAJOGGING CLUB LAPUGNOY (JC1:53:174:44 12.7126
9.7041DHELLEMMES Hugues47FRARUN ASCQ1:53:304:44 12.6927
10.6102PIERRU Jérôme40FRATRIATHLON CLUB AVIONNAIS1:54:374:47 12.5628
11.6824BEAUMONT Jerome44FRAOGSA1:55:054:48 12.5130
12.6181DELOISON Cyril41FRACAA1:55:554:50 12.4234
13.6237PETITPREZ Stephane41FRA1:57:024:53 12.3144
14.6544GORIS Cedric43FRAA S DUNKERQUE POLICE1:57:284:54 12.2647
15.6042AUCHART Mickaël42FRACPSS CARVIN1:57:414:55 12.2448
16.6358LEFEBVRE Antoine42FRA1:57:554:55 12.2150
17.7259ABSIL Fabrice45BEL1:58:434:57 12.1354
18.6125URBAIN Baudouin46FRA1:59:364:59 12.0460
19.6318AGOSTINO Antonio47ITALES ÉCLATÉS PÉRUWELZIENS1:59:545:00 12.0161
20.6863SINGER Christophe43FRA1:59:555:00 12.0162
21.7496HOSTYN Christophe41FRA2:00:515:03 11.9271
22.6223VANDENKERCKHOVE Hugues46FRALES COURANTS D'AIR2:03:395:10 11.6581
23.6534BOUHASSOUN Mehdi44FRAACOUTREAU2:03:445:10 11.6483
24.7215SAMAIN Baptiste44FRATAWAT2:03:585:10 11.6285
25.6267DUPONT Dimitri42BEL2:04:075:11 11.6086
26.7216SAMAIN Julien45FRATAWAT2:05:275:14 11.4891
27.7310LESNE Benoit45BELCOACH RUNNING2:06:065:16 11.4296
28.7334MOGIN Laurent48FRA2:06:075:16 11.4298
29.6200FOULON Sylvain49FRA2:06:235:16 11.39102
30.6048VIEILLARD Benoit43FRA2:07:185:19 11.31108
31.7225MATHIEU Frederic44FRA2:07:185:19 11.31109
32.6805BÉAREZ Maxime41BEL2:07:245:19 11.30110
33.6189DEGUISNE Frederic44FRA2:07:315:19 11.29113
34.6949DELCOURT Romuald41FRA2:07:375:20 11.28114
35.7126GILQUAIN Patrick45FRAETC2:07:425:20 11.28115
36.7539DHAENENS Gilles41FRA2:07:545:20 11.26118
37.6929LEPERON Christophe44FRA2:07:575:20 11.26119
38.6725TASSOU David48FRA2:08:125:21 11.23121
39.6974LEPOUTRE Vincent45BELSPORT EVASION2:08:445:22 11.19127
40.7135GASPARD Cédric41FRA2:08:515:23 11.18130
41.7173LECONTE Olivier45FRA2:08:535:23 11.17131
42.6794BODIN Frederic41FRAVILLENEUVE D'ASCQ TRIATHL2:09:065:23 11.16135
43.6428MOULY Stephane48FRA2:09:265:24 11.13138
44.6001MULLIEZ Amaury402:09:465:25 11.10141
45.7235COUSIN Benoit40FRASTADE LONGUENESSOIS2:10:035:26 11.07145
46.6591CARON Nicolas41FRA2:10:265:27 11.04149
47.7439SAUVETRE Stephane47FRAASL BOUVIGNIES2:10:365:27 11.03150
48.6245CHIARUTTINI Jean45FRAASL BOUVIGNIES2:10:365:27 11.03151
49.7344DURIEZ Arnaud40FRARUNASCQ2:10:515:28 11.01154
50.6050MARKEY Yves48BELLES ÉCLATÉS DE PÉRUWELZ2:10:515:28 11.01155
51.7322HIREL Olivier43FRA2:10:595:28 10.99158
52.6478BERTRAND Frederic47BEL2:11:065:28 10.98159
53.6306PLUQUET Franck43FRA2:11:285:29 10.95162
54.6087CHAPUIS Fabien47BELECLATES PERUWELZ2:11:545:30 10.92168
55.6791CHERFY Franck41FRA2:12:125:31 10.89169
56.6749DUMETZ Pascal49FRA2:12:165:31 10.89170
57.6270DELISLE Stéphane41FRA2:12:315:32 10.87175
58.6264DUWELZ David42FRASPHO2:12:395:32 10.86179
59.6982SAMAIN Thibault40FRATAWAT2:12:405:32 10.86180
60.6134SAUTEREAU Franck49FRAPASS RUNNING2:12:445:32 10.85182
61.6365COGNEAUX Eric43FRAMAUBEUGE MARATHON2:13:055:33 10.82187
62.6324COLLIN Pierre47BEL2:13:095:33 10.82188
63.6135HORAK Stephane48FRARIO TINTO2:13:125:33 10.81189
64.6211VERSTRAELEN Benoît40BEL2:13:195:34 10.80190
65.7094JAMIN Philippe40BELJOG'IN ATTITUDE2:13:595:35 10.75196
66.6448BUICHE Arnaud47FRAAS LFB2:14:045:36 10.74199
67.6993TURGOT Vincent48FRALUTTI TEAM2:14:075:36 10.74201
68.7460LÉONARD Stéphane44BEL2:14:195:36 10.72202
69.6854COLEMONTS Gilles44BELRUNNING CLUB FERNELMONT2:14:545:38 10.67207
70.6431BEAUDEL Philippe40FRA2:14:575:38 10.67208
71.6529MASSION Paul49BELCOUR'JET FARCIS2:14:595:38 10.67210
72.6986GOSSELIN Flovic40FRA2:15:035:38 10.66212
73.6855GAUDEFROY Pascal46FRA2:15:245:39 10.64217
74.6812DUMONT Patrice42FRA2:15:295:39 10.63219
75.7162DEMAREY Laurent44FRA2:15:395:40 10.62221
76.6232CHEVALLIER Yann46FRA2:16:145:41 10.57226
77.6222GRENIER Franck44FRA2:16:365:42 10.54228
78.6532LEPAN Guillaume40FRA2:16:555:43 10.52233
79.7511MORIVAL Jimmy43FRA2:16:585:43 10.51234
80.6461SAUVAGE Joanny44BELARCH2:17:095:43 10.50238
81.6356VAN DYK Damien42BELTEMPLEUVE2:17:405:45 10.46245
82.7200ENGRAND Boris40FRA2:17:545:45 10.44249
83.6373RITEL Olivier46FRA2:18:025:46 10.43253
84.6722TOULEMONDE François-Thierry44FRA2:18:145:46 10.42254
85.7366LEPOUTRE Emile44FRARUN ASCQ2:18:255:47 10.40255
86.7131DIERICKX Olivier43FRARUNNERS DE BONDUES2:18:295:47 10.40256
87.6188COURBET Ludovic45FRA2:19:035:48 10.36266
88.6198DENEUX Remi42FRACAA2:19:085:48 10.35267
89.6541LEFÈVRE Valentin41FRA2:19:385:50 10.31276
90.6384HENSEN Stephane44FRALES MOTIVÉS DU MARDI2:20:135:51 10.27285
91.7355VAN ENDE Jérémie41BEL2:20:265:52 10.25287
92.7323OCHIN Guillaume45FRA2:20:305:52 10.25291
93.6266FERY Etienne49BELRAPTOR TEAM2:20:545:53 10.22294
94.6153LIBOIS Marc43BELRAPTOR TEAM2:20:545:53 10.22295
95.6807DANJOU Michael44FRA2:21:115:53 10.20297
96.6574DUMONT Stéphane42FRA2:21:125:53 10.20298
97.6576DEROUSSEAU Gregory46FRA2:21:125:53 10.20299
98.6936BULOT Samuel44FRA2:21:175:54 10.19301
99.6459JOSSELIN Stéphane44FRAGHYVELDE2:21:315:54 10.18303
100.6132PETITJEAN David42FRA2:21:405:55 10.17306
101.7352FORTIN Etienne44FRA2:21:435:55 10.16308
102.6402NOE Edouard45FRA2:21:445:55 10.16309
103.7490GREGOIRE Thierry45FRAETHIAS RUNNING2:21:555:55 10.15311
104.6787RENARD Mathias43FRA2:21:585:55 10.14314
105.6258DE ST SEINE Ben41FRA2:21:585:55 10.14315
106.6652DEFOSSEZ Jerome47FRA2:23:035:58 10.07324
107.6403CHARDIN Michel48FRA2:23:135:59 10.06326
108.6756DEVULDER Michael44FRACROSS DUATHLON2:23:245:59 10.04327
109.7281GILBERT Etienne42BEL2:23:315:59 10.03331
110.7233VAN NIEUWENHUYZE Eric49BELSELLARONDATRAILRUN TEAM2:23:335:59 10.03332
111.7386FOUCART Mike40BEL2:23:335:59 10.03333
112.6278GROSJEAN Jean-François46BELJCPMFFLV2:24:196:01 9.98338
113.7425RANCE Thomas46FRA2:24:216:01 9.98339
114.6059TRICHARD Thierry49FRA2:24:276:02 9.97343
115.7120PANI Fabien43FRAQUESNOY PAR TOUS LES TEMP2:24:376:02 9.96344
116.6372GENETTE Sébastien45FRA2:24:426:02 9.95345
117.7368DOLEANS Yann42FRA2:24:516:03 9.94348
118.6369RINGEVAL Olivier40FRA2:24:586:03 9.93349
119.6104BOSSUT Vianney45FRA2:25:016:03 9.93351
120.6310DEGALLAIX Frederic42FRA2:25:056:03 9.93352
121.6149BRUNHES Thomas44FRA2:25:156:04 9.91355
122.6856SALEMBIER Ludovic46FRA2:25:256:04 9.90358
123.6000ROBERT David442:26:256:07 9.83366
124.6820LAIGLE Olivier46FRA2:26:266:07 9.83367
125.6733COULON Pierre40FRA2:26:356:07 9.82369
126.6311VANDERBAUWEDE Felix41FRA2:26:376:07 9.82370
127.7264ROHART Louis-Andre42FRA2:26:566:08 9.80375
128.7508VAN HASSELT Dominique48BEL2:27:116:08 9.78380
129.7427DEWULF Grégory49BELACCROS 5 CLOCHERS2:27:166:09 9.78383
130.7540CLAISSE Francois46FRAGRAVITY2:27:196:09 9.78384
131.6164LABRIFFE Alban44FRA2:27:206:09 9.77385
132.6351VANTROYS Thomas40FRAS/L AC VILLENEUVE D'ASCQ2:27:306:09 9.76388
133.6782DE RIEMAECKER Frederic43FRAOSM LOMME2:27:406:10 9.75389
134.7505LECLERCQ Michel49FRAJCPMF FLV2:27:526:10 9.74391
135.6935CATTOEN Fabien47FRA2:27:586:10 9.73394
136.6837THERASSE Franck44FRA2:28:046:11 9.73395
137.6997SOLERI Jean-François40FRA2:28:086:11 9.72399
138.7327MATAGNE Benoit43BELBOUBIET TEAM2:28:296:12 9.70402
139.6778LAVALLEE Johann40FRA2:28:326:12 9.69404
140.6741TARRIN Gillrs48FRA2:28:406:12 9.69406
141.7169BONDUELLE Thomas42FRA2:29:006:13 9.66413
142.7115LAPOTRE Sylvain48FRA2:29:076:13 9.66415
143.7504PARISI Franck42FRA2:29:136:14 9.65418
144.6828BOUDAILLIEZ Sébastien45FRA2:29:316:14 9.63424
145.7473DURAN Nicolas41FRA2:29:536:15 9.61427
146.6194RUOSO Michael42BEL2:30:266:17 9.57432
147.7370ZIEGLER Valery45FRA2:30:376:17 9.56434
148.6955DE VILLERS Venceslas40FRA2:30:426:17 9.56437
149.7376DUPONT Emmanuel41FRA2:30:526:18 9.55439
150.6934VAN MULLEM Grégory42FRA2:31:076:18 9.53441
151.6233BEZIER Eric46FRA2:31:106:18 9.53442
152.6190TROHEL Nicolas42FRA2:31:356:19 9.50449
153.6307DUMOULIN Gauthier42FRAGROUPE EMPLIO2:31:446:20 9.49450
154.7503QUINTILI Laurent41BELÉCLATÉS PÉRUWELZ2:31:466:20 9.49451
155.6003FEUTRY David452:31:476:20 9.49452
156.6140BRABANT Stéphane45FRA2:32:196:21 9.45457
157.7199BECK Alexandre42FRA2:32:436:22 9.43469
158.7053FONTAINE Loic42FRA2:32:486:22 9.42472
159.6399VANNESTE Laurent45FRAUS MARQUETTE2:32:526:23 9.42476
160.6052PIRES Victor45FRA2:32:576:23 9.42478
161.7244ESCARMELLE Johann41BELJAMES2:33:096:23 9.40480
162.6282JAUMOTTE Benoit49BELLES APÉROS DU MARDI2:33:256:24 9.39485
163.6340DRANCOURT Benoit48FRA2:33:356:24 9.38486
164.6138KIESECOMS Pascal46BELETENGHIEN2:33:396:25 9.37489
165.7333VANDERSTRICHELEN Laurent46BELJC DES COLLINES2:33:446:25 9.37491
166.7320LEMATTE Sébastien43FRA2:34:096:26 9.34497
167.7211LEMIRRE Christophe42FRA2:34:396:27 9.31506
168.6053CLERDENT Guy47BELLES FORT MORTIVES2:34:546:28 9.30509
169.6122KLEINKENBERG Pierre47BELRUN4FUN HAVELANGE2:35:146:29 9.28516
170.7014VANLERENBERGHE Olivier46FRA2:35:246:29 9.27517
171.6789DESIROTTE Gilles41BEL2:35:296:29 9.26518
172.6772DRAI Yoni40FRA2:35:416:30 9.25521
173.7345JADUTA Taras44BEL2:36:056:31 9.23527
174.6943CLEENEWERCK Christophe42FRA2:36:126:31 9.22529
175.6768DUHEM Matthieu46FRANO LIMIT2:36:176:31 9.21531
176.6825STUBBE Vincent44FRA2:36:206:31 9.21533
177.6946LEROY Olivier48FRAX RACING2:36:266:32 9.21535
178.7282MALLET Emmanuel48FRACAA2:37:116:33 9.16541
179.6312GIRARD Xavier42FRACLUB FRETIN2:37:156:34 9.16543
180.7480CAMBIER Pierre43BELCOACH RUNNING2:37:256:34 9.15548
181.7106LEFEBVRE Nicolas40FRAQUESNOY POUR TOUS2:37:266:34 9.15549
182.6451JACOBS Marc49BELETC2:37:456:35 9.13551
183.7565LEPRETRE Emmanuel43FRA2:37:476:35 9.13553
184.6347PAINDAVOINE Timothée42FRA2:37:486:35 9.13554
185.7304GENEAU Thibaut42FRA2:37:516:35 9.12555
186.6331PAULET Laurent45BELECLATÉS PÉRUWELZ2:38:116:36 9.10556
187.6765THIEFFRY Nicolas42FRA2:38:306:37 9.09560
188.7525LOUVET Xavier42FRA2:38:316:37 9.08561
189.7049PITOT René46FRALES ÉCLATÉS PÉRUWELZ2:38:396:37 9.08565
190.6757DESMIS Antoine48FRA2:39:476:40 9.01578
191.6273VILLETTE Frédéric41FRABLANC NEZ TRIATHLON2:40:106:41 8.99588
192.6315DEFRANCE Gregory44FRA2:40:166:41 8.99590
193.6227LECHERF Gregory46FRA2:40:266:42 8.98594
194.7031DEBONNET Emmanuel46FRA2:40:276:42 8.97596
195.6521FLAMENT Jean45FRA2:41:136:44 8.93605
196.7307SEGARD Arnaud41FRA2:41:376:45 8.91610
197.6799DUROYON Nicolas40FRA2:41:566:45 8.89615
198.7248VIGREUX Jérémy40FRA2:42:016:46 8.89617
199.6009BIBBO Gregory45DECATHLON ST-MARTIN2:42:196:46 8.87623
200.6145DUFLOS Patrice48FRA2:42:206:46 8.87624
201.6047HEULS Thomas42FRA2:42:256:47 8.87626
202.6158ROUSSEL David43FRA2:42:556:48 8.84636
203.7294VALYNSEELE Benoit43FRA2:43:166:49 8.82643
204.7073FABRICE Flament49FRA2:43:276:49 8.81645
205.7176LACQUEMENT Nicolas46FRA2:43:476:50 8.79647
206.6348DE CEULENEER Eddy42FRA2:43:526:50 8.79648
207.7136DELTOUR Samuel43BELPOMPIERS MONS2:43:576:50 8.78649
208.6174MEINGUET Laurent47FRALES MOTIVÉS DU MARDI2:44:026:51 8.78650
209.6947DESFONTAINES Pierre41FRA2:44:036:51 8.78651
210.6080NOVASIK Luc49FRA2:44:036:51 8.78652
211.7440AERNOUTS David40FRA2:44:076:51 8.77655
212.7451BEAURY Christophe42FRA2:44:286:52 8.76662
213.6514HAUTRIVE Gérald40BELRUNNING TEAM CONDROZ2:44:306:52 8.75663
214.7262LETENEUR Olivier48FRA2:44:426:52 8.74667
215.7277HENNEBERT Emmanuel46FRAFOULÉES SAINGHINOISES2:44:536:53 8.73668
216.7306DHALLUIN Benoit49FRAPLANETE RUNNING2:44:586:53 8.73670
217.6509PENEL Olivier46FRALA FER2:44:586:53 8.73671
218.7174MAHIEU Christophe42FRA2:45:096:53 8.72676
219.7303DRUBIGNY Damien42FRA2:45:356:54 8.70678
220.6489LAMBLIN Thierry46FRA2:45:406:55 8.69679
221.6030SPANNEUT Clotaire42FRALBS DEMOLITION2:46:096:56 8.67683
222.7203SARTENAER Thierry43BELLES POTOS ROSES SOMBREFFE2:46:106:56 8.67684
223.7351ABRAHAM Christophe42BELARCH2:46:116:56 8.67686
224.7591VERHEYDEN Joris49BELLES MOTIVÉS DU MARDI2:47:036:58 8.62695
225.7544LABENNE Vincent45FRA2:47:146:59 8.61699
226.6244QUIEF Bertrand46FRA2:47:186:59 8.61701
227.6364DIDRICHT Francis46BELBOUBIET TEAM2:47:226:59 8.60702
228.7448GONZALEZ Vincent41BELBOUBIET TEAM2:47:226:59 8.60703
229.6021DELEPORTE Jérôme44FRAEUROTUNNEL2:47:417:00 8.59707
230.7214MEGRET Olivier42FRAVAS Y PEPERE2:47:447:00 8.59708
231.6091FRANCHIMONT Stephane42BEL2:47:457:00 8.58709
232.6808SCHUMACHER Bertrand48FRA2:47:457:00 8.58711
233.7274BONNINGUE Cyrille41FRA2:47:567:00 8.58712
234.7156VERDIER Jerome44FRAKIKOUROU2:48:347:02 8.54722
235.6775MICHEL Maxime42FRAFER2:48:427:02 8.54723
236.7458CHOTEAU Geoffroy45FRARUN'ASCQ2:48:457:02 8.53729
237.7436REECHT Francois41FRA2:48:477:02 8.53730
238.6437LOUSBERG Michel43BELMA2:48:537:03 8.53731
239.6816VAN KALCK Gaetan42FRA2:48:597:03 8.52733
240.6462LESOT Frederic44DECATHLON ST-MARTIN2:49:247:04 8.50739
241.7430FECI Fabrice44FRA2:50:187:06 8.46743
242.6746LEGROS Ghislain46BELLES MOTIVÉS DU MARDI2:50:317:07 8.45749
243.6823BONDUELLE Fred42FRA2:50:427:07 8.44751
244.7256NEVE Frederic48BEL2:51:097:08 8.41756
245.6648BELVAL Nicolas41FRA2:51:207:09 8.40760
246.7189VANHUFFEL Renaud49BELJCPMF SOMBREFFE2:52:507:13 8.33781
247.6583MOREL Jerome40FRA2:53:017:13 8.32782
248.7188LEMAIRE Laurent47FRAECLA LANDAS2:53:047:13 8.32784
249.7288DECLERCQ Pierre49FRAZATAK2:53:147:14 8.31785
250.7484HOTAT Michel48FRAJAMES CLUB2:53:317:14 8.30789
251.7493VANCOPPENOLLE Eric41FRA2:54:177:16 8.26796
252.6339HOUBART Franck45FRAJOGGING CLUB DE LAPUGNOY2:54:227:16 8.26801
253.6184LORTHIOIR Arnaud45BEL2:54:297:17 8.25803
254.6839FOURNIER Frédéric43FRA2:54:537:18 8.23815
255.6407VAN MOLLEKOT Christophe46BEL2:55:047:18 8.23817
256.6545MAGNE Christophe42FRA2:55:087:18 8.22819
257.7452LEROY René44FRA2:55:147:19 8.22822
258.6830LANGE Philippe49BELJOG'IN ATTITUDE2:55:187:19 8.21825
259.6246JOVENAU Stephen45BEL2:55:367:19 8.20831
260.6842VAXELAIRE Damien41FRAAC SECLIN2:55:577:20 8.18837
261.7117VERLIN Yannick47FRA2:56:207:21 8.17844
262.6008AVISSSE Sebastien40DECATHLON ST-MARTIN2:56:307:22 8.16852
263.6850BONTANT Sylvain43FRA2:56:467:22 8.15855
264.6295PERROT Maxime46FRAOSML2:57:037:23 8.13861
265.6404LOSFELD Aymeric44FRAUS MARQUETTE2:57:107:23 8.13865
266.6595MAGNE Patrick42FRAPOLICE DUNKERQUE2:57:337:24 8.11876
267.7160MICHEL Julien40FRADOUAI HOCKEY CLUB2:57:437:25 8.10877
268.7159BLONDEL Philippe48FRADOUAI HOCKEY CLUB2:57:447:25 8.10879
269.7157PIOT Jean-David43FRADOUAI HOCKEY CLUB2:57:467:25 8.10881
270.6948LADERRIERE David46BELLES ÉCLATÉS PÉRUWELZ2:58:217:26 8.07886
271.6056JEUNEHOMME Pierre45BEL2:59:187:29 8.03895
272.6078EVERARD Thibaut42BELDION COURT2:59:247:29 8.03896
273.6972LAGRAULET Benjamin44FRA2:59:467:30 8.01901
274.6382BLUM Julien41FRA3:01:307:34 7.93911
275.6841ROYE Emmanuel42FRA3:01:577:35 7.91917
276.6197PELLEGRIN Fabrice49FRACOURIR A ABBEVILLE3:03:087:38 7.86933
277.6821KINDT Jean-François47BELJCPMF FLV3:04:097:41 7.82942
278.6330MANSY Steven44FRAJCPMFFLV3:04:097:41 7.82943
279.7512CANDELIER Cedric41FRA3:04:537:43 7.79947
280.7208REY Jean-Marie48FRA3:05:007:43 7.78953
281.6418DELCAMBE Frederic44BEL3:05:247:44 7.77954
282.6142JOUAS Frédéric42FRA3:06:107:46 7.74965
283.6129LEDOUX Sébastien44FRATEAM LEDOUX3:07:037:48 7.70968
284.7253HORNAIN Bertrand44FRA3:07:427:50 7.67978
285.6219TOP Guillaume44FRA3:09:087:53 7.61992
286.6301LEROY François46FRA3:09:177:54 7.61994
287.6978VAN INGHELANDT Frederic42FRA3:09:517:55 7.591002
288.6426BEYLS Philippe48BELJCL3:09:527:55 7.581003
289.6413DESMET Frederic44FRA3:10:567:58 7.541011
290.6762STAPELLE David41BELRFCHA BELGIQUE3:10:587:58 7.541012
291.6325CHOMBEAU Fabien45FRA3:11:388:00 7.511025
292.7488MULLENDERS Claude47BELETHIAS RUNNING3:11:418:00 7.511026
293.6976CARRE Thomas46FRA3:11:578:00 7.501041
294.6247DELABRE Laurent46FRAJOGGING CLUB DE LAPUGNOY3:12:128:01 7.491044
295.6321AIMÉ Stephane46BELLES GAULOIS3:13:258:04 7.451057
296.6802BERNARD Christophe46FRA3:13:368:04 7.441063
297.7032LAURENT Nicolas49BEL3:13:368:04 7.441064
298.7057LEYMAN Fabrice41BEL3:13:378:05 7.441068
299.7107PIETIN Carl-Stéfan42FRA3:13:478:05 7.431074
300.7000GAUTHIER Hugues40FRA3:14:008:05 7.421077
301.6377ANDRE J Philippe44FRA3:14:138:06 7.411080
302.6941GEST Laurent44FRARUN IN BOUSBECQUE3:14:418:07 7.401084
303.7470DRIEUX Nicolas43FRA3:14:478:07 7.391086
304.6349MERTENS Nils41BELJE COURS POUR MES FORMES 3:15:238:09 7.371097
305.6417BOSSART Frederic42FRA3:15:248:09 7.371098
306.6300DESTENAY Patrick44BELONLY WARRIOR3:15:418:10 7.361099
307.7197GLISSOUX Thierry45BEL3:16:218:11 7.331103
308.7092MIGNOLET Pierre46FRA3:16:308:12 7.331104
309.6210MORESCHI Pierre-Louis49FRAJOGGING CLUB BAUDOUR3:16:528:13 7.311111
310.6007VALLARD Michael43DECATHLON ST-MARTIN3:17:038:13 7.311113
311.6528LEDEZ Fabrice45FRA3:17:038:13 7.311114
312.7290MAHUT Nicolas46BEL3:18:078:16 7.271128
313.6533RAUYER Yann44FRA3:19:078:18 7.231136
314.7424DEVIN Sebastien42FRA3:21:398:25 7.141157
315.6457PONCELET Denis47BEL3:23:018:28 7.091162
316.6444SIMOEN Vincent41BEL3:23:298:29 7.081164
317.6065LEJEUNE Laurent45BELECLATÉS PÉRUWELZ3:24:018:31 7.061166
318.6654COLETTA Michel41FRATEAM DU CAILLOU3:26:358:37 6.971185
319.7522BERNARD Christophe42BELJCPMF FLV3:26:458:37 6.971188
320.6020BOUIN Jean-Michel48FRA3:29:418:45 6.871200
321.7319LENOIR Philippe49FRA3:30:038:46 6.861201
322.7247CARRÉE Sébastien40FRA3:30:088:46 6.851203
323.6506THOMAS Francois41FRASOC CALAIS-BONNINGUES3:30:108:46 6.851204
324.6029WASIAK Richard46FRA3:30:138:46 6.851207
325.7328CAUCHE Johan43FRATEAM TRAIL GRAVELINES3:30:208:46 6.851208
326.7520MOSER Sylvain49FRA3:30:388:47 6.841210
327.6162LAMARD Frederic47FRAASRA3:31:318:49 6.811212
328.7463FONDER Olivier40BELSNULS3:40:239:11 6.531226
329.6728MARION Olivier44FRA3:40:459:12 6.521229
330.6736TAVERNE Marc43FRA3:44:099:21 6.421234
331.6216DUMONT Julien40BEL3:45:089:23 6.401237
DNF7575COUPE Ludovic44FRALES Z'AMIS COUREURS DE LA
DNF6994DUMONT Didier47FRA
DNF6172HUBERT Guillaume41FRA
DNF6442JOSKIN Philippe47BELMA
DNF7254LEFEBVRE Christophe42FRARUNNINGHEM EN WEPPES
DNF7250RIGO Nicolas45BELGAG
DNF6360TESSE Hugues49BEL
DNF: abandon; DSQ: disqualifié; Vitesse en km/h
Seite: [1]